Year,Month,Day,Hour,Minute,Value (Times are PST for temperature in C)
2010,02,18,00,00,-0.10
2010,02,18,00,01,0.00
2010,02,18,00,02,0.00
2010,02,18,00,03,0.10
2010,02,18,00,04,0.10
2010,02,18,00,05,0.10
2010,02,18,00,06,0.00
2010,02,18,00,07,0.00
2010,02,18,00,08,0.00
2010,02,18,00,09,-0.10
2010,02,18,00,10,-0.10
2010,02,18,00,11,-0.10
2010,02,18,00,12,-0.20
2010,02,18,00,13,-0.20
2010,02,18,00,14,-0.30
2010,02,18,00,15,-0.30
2010,02,18,00,16,-0.30
2010,02,18,00,17,-0.30
2010,02,18,00,18,-0.30
2010,02,18,00,19,-0.30
2010,02,18,00,20,-0.30
2010,02,18,00,21,-0.40
2010,02,18,00,22,-0.40
2010,02,18,00,23,-0.40
2010,02,18,00,24,-0.40
2010,02,18,00,25,-0.50
2010,02,18,00,26,-0.60
2010,02,18,00,27,-0.60
2010,02,18,00,28,-0.70
2010,02,18,00,29,-0.70
2010,02,18,00,30,-0.70
2010,02,18,00,31,-0.70
2010,02,18,00,32,-0.70
2010,02,18,00,33,-0.70
2010,02,18,00,34,-0.80
2010,02,18,00,35,-0.80
2010,02,18,00,36,-0.80
2010,02,18,00,37,-0.80
2010,02,18,00,38,-0.80
2010,02,18,00,39,-0.80
2010,02,18,00,40,-0.80
2010,02,18,00,41,-0.90
2010,02,18,00,42,-0.90
2010,02,18,00,43,-0.90
2010,02,18,00,44,-0.90
2010,02,18,00,45,-0.90
2010,02,18,00,46,-0.90
2010,02,18,00,47,-0.90
2010,02,18,00,48,-0.90
2010,02,18,00,49,-0.90
2010,02,18,00,50,-0.90
2010,02,18,00,51,-1.00
2010,02,18,00,52,-1.00
2010,02,18,00,53,-1.00
2010,02,18,00,54,-1.00
2010,02,18,00,55,-1.00
2010,02,18,00,56,-1.00
2010,02,18,00,57,-1.00
2010,02,18,00,58,-1.00
2010,02,18,00,59,-0.90
2010,02,18,01,00,-0.90
2010,02,18,01,01,-0.90
2010,02,18,01,02,-0.90
2010,02,18,01,03,-0.90
2010,02,18,01,04,-0.80
2010,02,18,01,05,-0.70
2010,02,18,01,06,-0.50
2010,02,18,01,07,-0.40
2010,02,18,01,08,-0.40
2010,02,18,01,09,-0.40
2010,02,18,01,10,-0.40
2010,02,18,01,11,-0.40
2010,02,18,01,12,-0.50
2010,02,18,01,13,-0.50
2010,02,18,01,14,-0.60
2010,02,18,01,15,-0.70
2010,02,18,01,16,-0.70
2010,02,18,01,17,-0.70
2010,02,18,01,18,-0.80
2010,02,18,01,19,-0.80
2010,02,18,01,20,-0.80
2010,02,18,01,21,-0.80
2010,02,18,01,22,-0.80
2010,02,18,01,23,-0.90
2010,02,18,01,24,-0.90
2010,02,18,01,25,-0.90
2010,02,18,01,26,-0.90
2010,02,18,01,27,-0.90
2010,02,18,01,28,-0.80
2010,02,18,01,29,-0.80
2010,02,18,01,30,-0.80
2010,02,18,01,31,-0.80
2010,02,18,01,32,-0.80
2010,02,18,01,33,-0.80
2010,02,18,01,34,-0.80
2010,02,18,01,35,-0.80
2010,02,18,01,36,-0.90
2010,02,18,01,37,-0.90
2010,02,18,01,38,-0.90
2010,02,18,01,39,-0.90
2010,02,18,01,40,-0.90
2010,02,18,01,41,-0.90
2010,02,18,01,42,-0.90
2010,02,18,01,43,-0.90
2010,02,18,01,44,-0.90
2010,02,18,01,45,-1.00
2010,02,18,01,46,-1.00
2010,02,18,01,47,-1.00
2010,02,18,01,48,-1.00
2010,02,18,01,49,-1.00
2010,02,18,01,50,-1.00
2010,02,18,01,51,-1.00
2010,02,18,01,52,-1.00
2010,02,18,01,53,-1.00
2010,02,18,01,54,-0.90
2010,02,18,01,55,-0.90
2010,02,18,01,56,-0.90
2010,02,18,01,57,-0.90
2010,02,18,01,58,-0.90
2010,02,18,01,59,-0.90
2010,02,18,02,00,-1.00
2010,02,18,02,01,-1.00
2010,02,18,02,02,-0.90
2010,02,18,02,03,-0.80
2010,02,18,02,04,-0.80
2010,02,18,02,05,-0.80
2010,02,18,02,06,-0.80
2010,02,18,02,07,-0.80
2010,02,18,02,08,-0.80
2010,02,18,02,09,-0.80
2010,02,18,02,10,-0.80
2010,02,18,02,11,-0.90
2010,02,18,02,12,-0.90
2010,02,18,02,13,-0.90
2010,02,18,02,14,-1.00
2010,02,18,02,15,-1.00
2010,02,18,02,16,-1.10
2010,02,18,02,17,-1.10
2010,02,18,02,18,-1.10
2010,02,18,02,19,-1.00
2010,02,18,02,20,-0.90
2010,02,18,02,21,-0.90
2010,02,18,02,22,-0.90
2010,02,18,02,23,-1.00
2010,02,18,02,24,-1.00
2010,02,18,02,25,-1.00
2010,02,18,02,26,-1.00
2010,02,18,02,27,-0.90
2010,02,18,02,28,-1.00
2010,02,18,02,29,-1.00
2010,02,18,02,30,-0.90
2010,02,18,02,31,-0.80
2010,02,18,02,32,-0.80
2010,02,18,02,33,-0.70
2010,02,18,02,34,-0.70
2010,02,18,02,35,-0.70
2010,02,18,02,36,-0.60
2010,02,18,02,37,-0.60
2010,02,18,02,38,-0.60
2010,02,18,02,39,-0.60
2010,02,18,02,40,-0.70
2010,02,18,02,41,-0.70
2010,02,18,02,42,-0.70
2010,02,18,02,43,-0.70
2010,02,18,02,44,-0.80
2010,02,18,02,45,-0.80
2010,02,18,02,46,-0.80
2010,02,18,02,47,-0.80
2010,02,18,02,48,-0.80
2010,02,18,02,49,-0.80
2010,02,18,02,50,-0.80
2010,02,18,02,51,-0.80
2010,02,18,02,52,-0.80
2010,02,18,02,53,-0.80
2010,02,18,02,54,-0.80
2010,02,18,02,55,-0.80
2010,02,18,02,56,-0.70
2010,02,18,02,57,-0.70
2010,02,18,02,58,-0.70
2010,02,18,02,59,-0.70
2010,02,18,03,00,-0.60
2010,02,18,03,01,-0.60
2010,02,18,03,02,-0.60
2010,02,18,03,03,-0.70
2010,02,18,03,04,-0.70
2010,02,18,03,05,-0.80
2010,02,18,03,06,-0.80
2010,02,18,03,07,-0.80
2010,02,18,03,08,-0.90
2010,02,18,03,09,-0.90
2010,02,18,03,10,-0.90
2010,02,18,03,11,-1.00
2010,02,18,03,12,-1.00
2010,02,18,03,13,-1.00
2010,02,18,03,14,-1.00
2010,02,18,03,15,-1.00
2010,02,18,03,16,-1.00
2010,02,18,03,17,-0.90
2010,02,18,03,18,-0.90
2010,02,18,03,19,-0.90
2010,02,18,03,20,-0.90
2010,02,18,03,21,-0.90
2010,02,18,03,22,-0.90
2010,02,18,03,23,-0.90
2010,02,18,03,24,-0.90
2010,02,18,03,25,-0.90
2010,02,18,03,26,-0.90
2010,02,18,03,27,-1.00
2010,02,18,03,28,-1.00
2010,02,18,03,29,-1.10
2010,02,18,03,30,-1.10
2010,02,18,03,31,-1.10
2010,02,18,03,32,-1.10
2010,02,18,03,33,-1.00
2010,02,18,03,34,-1.00
2010,02,18,03,35,-1.10
2010,02,18,03,36,-1.10
2010,02,18,03,37,-1.10
2010,02,18,03,38,-1.10
2010,02,18,03,39,-1.10
2010,02,18,03,40,-1.10
2010,02,18,03,41,-1.10
2010,02,18,03,42,-1.10
2010,02,18,03,43,-1.10
2010,02,18,03,44,-1.10
2010,02,18,03,45,-1.00
2010,02,18,03,46,-1.00
2010,02,18,03,47,-1.00
2010,02,18,03,48,-1.00
2010,02,18,03,49,-1.00
2010,02,18,03,50,-1.00
2010,02,18,03,51,-1.00
2010,02,18,03,52,-1.10
2010,02,18,03,53,-1.10
2010,02,18,03,54,-1.20
2010,02,18,03,55,-1.20
2010,02,18,03,56,-1.30
2010,02,18,03,57,-1.30
2010,02,18,03,58,-1.30
2010,02,18,03,59,-1.30
2010,02,18,04,00,-1.40
2010,02,18,04,01,-1.40
2010,02,18,04,02,-1.40
2010,02,18,04,03,-1.40
2010,02,18,04,04,-1.40
2010,02,18,04,05,-1.40
2010,02,18,04,06,-1.40
2010,02,18,04,07,-1.40
2010,02,18,04,08,-1.40
2010,02,18,04,09,-1.40
2010,02,18,04,10,-1.40
2010,02,18,04,11,-1.40
2010,02,18,04,12,-1.40
2010,02,18,04,13,-1.40
2010,02,18,04,14,-1.40
2010,02,18,04,15,-1.40
2010,02,18,04,16,-1.40
2010,02,18,04,17,-1.40
2010,02,18,04,18,-1.30
2010,02,18,04,19,-1.30
2010,02,18,04,20,-1.40
2010,02,18,04,21,-1.40
2010,02,18,04,22,-1.40
2010,02,18,04,23,-1.40
2010,02,18,04,24,-1.40
2010,02,18,04,25,-1.40
2010,02,18,04,26,-1.40
2010,02,18,04,27,-1.40
2010,02,18,04,28,-1.40
2010,02,18,04,29,-1.40
2010,02,18,04,30,-1.40
2010,02,18,04,31,-1.40
2010,02,18,04,32,-1.40
2010,02,18,04,33,-1.50
2010,02,18,04,34,-1.50
2010,02,18,04,35,-1.50
2010,02,18,04,36,-1.50
2010,02,18,04,37,-1.50
2010,02,18,04,38,-1.50
2010,02,18,04,39,-1.50
2010,02,18,04,40,-1.50
2010,02,18,04,41,-1.50
2010,02,18,04,42,-1.50
2010,02,18,04,43,-1.50
2010,02,18,04,44,-1.50
2010,02,18,04,45,-1.50
2010,02,18,04,46,-1.50
2010,02,18,04,47,-1.50
2010,02,18,04,48,-1.60
2010,02,18,04,49,-1.60
2010,02,18,04,50,-1.60
2010,02,18,04,51,-1.60
2010,02,18,04,52,-1.60
2010,02,18,04,53,-1.60
2010,02,18,04,54,-1.60
2010,02,18,04,55,-1.60
2010,02,18,04,56,-1.60
2010,02,18,04,57,-1.60
2010,02,18,04,58,-1.60
2010,02,18,04,59,-1.60
2010,02,18,05,00,-1.60
2010,02,18,05,01,-1.60
2010,02,18,05,02,-1.60
2010,02,18,05,03,-1.60
2010,02,18,05,04,-1.60
2010,02,18,05,05,-1.60
2010,02,18,05,06,-1.60
2010,02,18,05,07,-1.60
2010,02,18,05,08,-1.60
2010,02,18,05,09,-1.60
2010,02,18,05,10,-1.60
2010,02,18,05,11,-1.60
2010,02,18,05,12,-1.60
2010,02,18,05,13,-1.60
2010,02,18,05,14,-1.50
2010,02,18,05,15,-1.50
2010,02,18,05,16,-1.50
2010,02,18,05,17,-1.50
2010,02,18,05,18,-1.50
2010,02,18,05,19,-1.50
2010,02,18,05,20,-1.50
2010,02,18,05,21,-1.50
2010,02,18,05,22,-1.50
2010,02,18,05,23,-1.50
2010,02,18,05,24,-1.50
2010,02,18,05,25,-1.50
2010,02,18,05,26,-1.50
2010,02,18,05,27,-1.50
2010,02,18,05,28,-1.50
2010,02,18,05,29,-1.50
2010,02,18,05,30,-1.50
2010,02,18,05,31,-1.60
2010,02,18,05,32,-1.60
2010,02,18,05,33,-1.60
2010,02,18,05,34,-1.60
2010,02,18,05,35,-1.60
2010,02,18,05,36,-1.60
2010,02,18,05,37,-1.60
2010,02,18,05,38,-1.60
2010,02,18,05,39,-1.60
2010,02,18,05,40,-1.70
2010,02,18,05,41,-1.70
2010,02,18,05,42,-1.70
2010,02,18,05,43,-1.60
2010,02,18,05,44,-1.70
2010,02,18,05,45,-1.70
2010,02,18,05,46,-1.70
2010,02,18,05,47,-1.70
2010,02,18,05,48,-1.70
2010,02,18,05,49,-1.70
2010,02,18,05,50,-1.70
2010,02,18,05,51,-1.70
2010,02,18,05,52,-1.70
2010,02,18,05,53,-1.60
2010,02,18,05,54,-1.60
2010,02,18,05,55,-1.60
2010,02,18,05,56,-1.60
2010,02,18,05,57,-1.60
2010,02,18,05,58,-1.60
2010,02,18,05,59,-1.60
2010,02,18,06,00,-1.60
2010,02,18,06,01,-1.60
2010,02,18,06,02,-1.60
2010,02,18,06,03,-1.60
2010,02,18,06,04,-1.60
2010,02,18,06,05,-1.60
2010,02,18,06,06,-1.60
2010,02,18,06,07,-1.60
2010,02,18,06,08,-1.60
2010,02,18,06,09,-1.60
2010,02,18,06,10,-1.50
2010,02,18,06,11,-1.50
2010,02,18,06,12,-1.50
2010,02,18,06,13,-1.40
2010,02,18,06,14,-1.40
2010,02,18,06,15,-1.40
2010,02,18,06,16,-1.50
2010,02,18,06,17,-1.50
2010,02,18,06,18,-1.50
2010,02,18,06,19,-1.60
2010,02,18,06,20,-1.60
2010,02,18,06,21,-1.60
2010,02,18,06,22,-1.60
2010,02,18,06,23,-1.70
2010,02,18,06,24,-1.60
2010,02,18,06,25,-1.70
2010,02,18,06,26,-1.70
2010,02,18,06,27,-1.70
2010,02,18,06,28,-1.70
2010,02,18,06,29,-1.70
2010,02,18,06,30,-1.70
2010,02,18,06,31,-1.70
2010,02,18,06,32,-1.70
2010,02,18,06,33,-1.70
2010,02,18,06,34,-1.70
2010,02,18,06,35,-1.70
2010,02,18,06,36,-1.70
2010,02,18,06,37,-1.70
2010,02,18,06,38,-1.60
2010,02,18,06,39,-1.60
2010,02,18,06,40,-1.60
2010,02,18,06,41,-1.60
2010,02,18,06,42,-1.70
2010,02,18,06,43,-1.70
2010,02,18,06,44,-1.70
2010,02,18,06,45,-1.70
2010,02,18,06,46,-1.70
2010,02,18,06,47,-1.60
2010,02,18,06,48,-1.60
2010,02,18,06,49,-1.60
2010,02,18,06,50,-1.60
2010,02,18,06,51,-1.60
2010,02,18,06,52,-1.60
2010,02,18,06,53,-1.60
2010,02,18,06,54,-1.60
2010,02,18,06,55,-1.60
2010,02,18,06,56,-1.60
2010,02,18,06,57,-1.70
2010,02,18,06,58,-1.70
2010,02,18,06,59,-1.70
2010,02,18,07,00,-1.70
2010,02,18,07,01,-1.70
2010,02,18,07,02,-1.70
2010,02,18,07,03,-1.70
2010,02,18,07,04,-1.70
2010,02,18,07,05,-1.70
2010,02,18,07,06,-1.70
2010,02,18,07,07,-1.70
2010,02,18,07,08,-1.70
2010,02,18,07,09,-1.70
2010,02,18,07,10,-1.70
2010,02,18,07,11,-1.70
2010,02,18,07,12,-1.60
2010,02,18,07,13,-1.60
2010,02,18,07,14,-1.50
2010,02,18,07,15,-1.40
2010,02,18,07,16,-1.30
2010,02,18,07,17,-1.30
2010,02,18,07,18,-1.30
2010,02,18,07,19,-1.30
2010,02,18,07,20,-1.30
2010,02,18,07,21,-1.20
2010,02,18,07,22,-1.20
2010,02,18,07,23,-1.20
2010,02,18,07,24,-1.20
2010,02,18,07,25,-1.20
2010,02,18,07,26,-1.20
2010,02,18,07,27,-1.10
2010,02,18,07,28,-1.10
2010,02,18,07,29,-1.00
2010,02,18,07,30,-1.00
2010,02,18,07,31,-1.10
2010,02,18,07,32,-1.10
2010,02,18,07,33,-1.20
2010,02,18,07,34,-1.20
2010,02,18,07,35,-1.20
2010,02,18,07,36,-1.10
2010,02,18,07,37,-1.10
2010,02,18,07,38,-1.10
2010,02,18,07,39,-1.10
2010,02,18,07,40,-1.10
2010,02,18,07,41,-1.10
2010,02,18,07,42,-1.10
2010,02,18,07,43,-1.10
2010,02,18,07,44,-1.10
2010,02,18,07,45,-1.00
2010,02,18,07,46,-1.00
2010,02,18,07,47,-1.00
2010,02,18,07,48,-1.10
2010,02,18,07,49,-1.20
2010,02,18,07,50,-1.20
2010,02,18,07,51,-1.10
2010,02,18,07,52,-1.10
2010,02,18,07,53,-1.10
2010,02,18,07,54,-1.10
2010,02,18,07,55,-1.10
2010,02,18,07,56,-1.20
2010,02,18,07,57,-1.20
2010,02,18,07,58,-1.20
2010,02,18,07,59,-1.20
2010,02,18,08,00,-1.20
2010,02,18,08,01,-1.20
2010,02,18,08,02,-1.20
2010,02,18,08,03,-1.20
2010,02,18,08,04,-1.20
2010,02,18,08,05,-1.20
2010,02,18,08,06,-1.20
2010,02,18,08,07,-1.10
2010,02,18,08,08,-1.10
2010,02,18,08,09,-1.10
2010,02,18,08,10,-1.10
2010,02,18,08,11,-1.10
2010,02,18,08,12,-1.00
2010,02,18,08,13,-0.90
2010,02,18,08,14,-0.80
2010,02,18,08,15,-0.70
2010,02,18,08,16,-0.60
2010,02,18,08,17,-0.50
2010,02,18,08,18,-0.40
2010,02,18,08,19,-0.30
2010,02,18,08,20,-0.30
2010,02,18,08,21,-0.30
2010,02,18,08,22,-0.20
2010,02,18,08,23,-0.10
2010,02,18,08,24,-0.10
2010,02,18,08,25,0.00
2010,02,18,08,26,0.00
2010,02,18,08,27,0.00
2010,02,18,08,28,-0.10
2010,02,18,08,29,0.00
2010,02,18,08,30,0.10
2010,02,18,08,31,0.20
2010,02,18,08,32,0.30
2010,02,18,08,33,0.30
2010,02,18,08,34,0.40
2010,02,18,08,35,0.60
2010,02,18,08,36,0.70
2010,02,18,08,37,0.70
2010,02,18,08,38,0.80
2010,02,18,08,39,0.70
2010,02,18,08,40,0.70
2010,02,18,08,41,0.80
2010,02,18,08,42,0.90
2010,02,18,08,43,0.90
2010,02,18,08,44,0.90
2010,02,18,08,45,0.90
2010,02,18,08,46,0.80
2010,02,18,08,47,0.80
2010,02,18,08,48,0.90
2010,02,18,08,49,0.90
2010,02,18,08,50,0.90
2010,02,18,08,51,0.90
2010,02,18,08,52,0.90
2010,02,18,08,53,0.90
2010,02,18,08,54,0.90
2010,02,18,08,55,0.90
2010,02,18,08,56,0.90
2010,02,18,08,57,1.00
2010,02,18,08,58,1.00
2010,02,18,08,59,1.10
2010,02,18,09,00,1.20
2010,02,18,09,01,1.30
2010,02,18,09,02,1.30
2010,02,18,09,03,1.40
2010,02,18,09,04,1.60
2010,02,18,09,05,1.70
2010,02,18,09,06,1.90
2010,02,18,09,07,2.00
2010,02,18,09,08,2.10
2010,02,18,09,09,2.20
2010,02,18,09,10,2.40
2010,02,18,09,11,2.50
2010,02,18,09,12,2.60
2010,02,18,09,13,2.70
2010,02,18,09,14,2.80
2010,02,18,09,15,3.00
2010,02,18,09,16,3.10
2010,02,18,09,17,3.20
2010,02,18,09,18,3.40
2010,02,18,09,19,3.50
2010,02,18,09,20,3.60
2010,02,18,09,21,3.70
2010,02,18,09,22,3.80
2010,02,18,09,23,3.90
2010,02,18,09,24,4.00
2010,02,18,09,25,4.00
2010,02,18,09,26,4.10
2010,02,18,09,27,4.10
2010,02,18,09,28,4.20
2010,02,18,09,29,4.30
2010,02,18,09,30,4.40
2010,02,18,09,31,4.50
2010,02,18,09,32,4.60
2010,02,18,09,33,4.70
2010,02,18,09,34,4.70
2010,02,18,09,35,4.80
2010,02,18,09,36,4.90
2010,02,18,09,37,5.00
2010,02,18,09,38,5.10
2010,02,18,09,39,5.20
2010,02,18,09,40,5.20
2010,02,18,09,41,5.30
2010,02,18,09,42,5.30
2010,02,18,09,43,5.40
2010,02,18,09,44,5.40
2010,02,18,09,45,5.50
2010,02,18,09,46,5.60
2010,02,18,09,47,5.60
2010,02,18,09,48,5.60
2010,02,18,09,49,5.70
2010,02,18,09,50,5.80
2010,02,18,09,51,5.80
2010,02,18,09,52,5.90
2010,02,18,09,53,6.00
2010,02,18,09,54,6.10
2010,02,18,09,55,6.20
2010,02,18,09,56,6.30
2010,02,18,09,57,6.30
2010,02,18,09,58,6.30
2010,02,18,09,59,6.30
2010,02,18,10,00,6.20
2010,02,18,10,01,6.20
2010,02,18,10,02,6.20
2010,02,18,10,03,6.30
2010,02,18,10,04,6.30
2010,02,18,10,05,6.30
2010,02,18,10,06,6.30
2010,02,18,10,07,6.30
2010,02,18,10,08,6.30
2010,02,18,10,09,6.20
2010,02,18,10,10,6.20
2010,02,18,10,11,6.10
2010,02,18,10,12,6.10
2010,02,18,10,13,6.00
2010,02,18,10,14,6.00
2010,02,18,10,15,6.00
2010,02,18,10,16,6.00
2010,02,18,10,17,5.90
2010,02,18,10,18,5.90
2010,02,18,10,19,6.00
2010,02,18,10,20,6.00
2010,02,18,10,21,6.10
2010,02,18,10,22,6.10
2010,02,18,10,23,6.10
2010,02,18,10,24,6.10
2010,02,18,10,25,6.10
2010,02,18,10,26,6.10
2010,02,18,10,27,6.20
2010,02,18,10,28,6.20
2010,02,18,10,29,6.20
2010,02,18,10,30,6.30
2010,02,18,10,31,6.30
2010,02,18,10,32,6.40
2010,02,18,10,33,6.40
2010,02,18,10,34,6.50
2010,02,18,10,35,6.50
2010,02,18,10,36,6.60
2010,02,18,10,37,6.60
2010,02,18,10,38,6.50
2010,02,18,10,39,6.60
2010,02,18,10,40,6.50
2010,02,18,10,41,6.50
2010,02,18,10,42,6.40
2010,02,18,10,43,6.40
2010,02,18,10,44,6.30
2010,02,18,10,45,6.30
2010,02,18,10,46,6.30
2010,02,18,10,47,6.30
2010,02,18,10,48,6.20
2010,02,18,10,49,6.20
2010,02,18,10,50,6.20
2010,02,18,10,51,6.30
2010,02,18,10,52,6.30
2010,02,18,10,53,6.20
2010,02,18,10,54,6.30
2010,02,18,10,55,6.30
2010,02,18,10,56,6.30
2010,02,18,10,57,6.30
2010,02,18,10,58,6.30
2010,02,18,10,59,6.30
2010,02,18,11,00,6.30
2010,02,18,11,01,6.30
2010,02,18,11,02,6.30
2010,02,18,11,03,6.30
2010,02,18,11,04,6.30
2010,02,18,11,05,6.30
2010,02,18,11,06,6.30
2010,02,18,11,07,6.30
2010,02,18,11,08,6.20
2010,02,18,11,09,6.20
2010,02,18,11,10,6.30
2010,02,18,11,11,6.30
2010,02,18,11,12,6.30
2010,02,18,11,13,6.30
2010,02,18,11,14,6.30
2010,02,18,11,15,6.30
2010,02,18,11,16,6.30
2010,02,18,11,17,6.30
2010,02,18,11,18,6.30
2010,02,18,11,19,6.30
2010,02,18,11,20,6.30
2010,02,18,11,21,6.30
2010,02,18,11,22,6.20
2010,02,18,11,23,6.20
2010,02,18,11,24,6.20
2010,02,18,11,25,6.20
2010,02,18,11,26,6.20
2010,02,18,11,27,6.20
2010,02,18,11,28,6.20
2010,02,18,11,29,6.30
2010,02,18,11,30,6.30
2010,02,18,11,31,6.30
2010,02,18,11,32,6.30
2010,02,18,11,33,6.30
2010,02,18,11,34,6.30
2010,02,18,11,35,6.30
2010,02,18,11,36,6.30
2010,02,18,11,37,6.30
2010,02,18,11,38,6.40
2010,02,18,11,39,6.40
2010,02,18,11,40,6.40
2010,02,18,11,41,6.50
2010,02,18,11,42,6.50
2010,02,18,11,43,6.50
2010,02,18,11,44,6.40
2010,02,18,11,45,6.40
2010,02,18,11,46,6.40
2010,02,18,11,47,6.40
2010,02,18,11,48,6.50
2010,02,18,11,49,6.50
2010,02,18,11,50,6.50
2010,02,18,11,51,6.50
2010,02,18,11,52,6.60
2010,02,18,11,53,6.50
2010,02,18,11,54,6.60
2010,02,18,11,55,6.60
2010,02,18,11,56,6.60
2010,02,18,11,57,6.60
2010,02,18,11,58,6.70
2010,02,18,11,59,6.70
2010,02,18,12,00,6.80
2010,02,18,12,01,6.80
2010,02,18,12,02,6.80
2010,02,18,12,03,6.80
2010,02,18,12,04,6.80
2010,02,18,12,05,6.80
2010,02,18,12,06,6.80
2010,02,18,12,07,6.80
2010,02,18,12,08,6.80
2010,02,18,12,09,6.90
2010,02,18,12,10,6.90
2010,02,18,12,11,6.90
2010,02,18,12,12,6.90
2010,02,18,12,13,6.90
2010,02,18,12,14,6.90
2010,02,18,12,15,6.90
2010,02,18,12,16,6.80
2010,02,18,12,17,6.80
2010,02,18,12,18,6.80
2010,02,18,12,19,6.70
2010,02,18,12,20,6.70
2010,02,18,12,21,6.70
2010,02,18,12,22,6.70
2010,02,18,12,23,6.70
2010,02,18,12,24,6.70
2010,02,18,12,25,6.80
2010,02,18,12,26,6.80
2010,02,18,12,27,6.90
2010,02,18,12,28,6.90
2010,02,18,12,29,6.90
2010,02,18,12,30,6.90
2010,02,18,12,31,6.90
2010,02,18,12,32,6.90
2010,02,18,12,33,6.90
2010,02,18,12,34,6.90
2010,02,18,12,35,6.90
2010,02,18,12,36,6.90
2010,02,18,12,37,6.90
2010,02,18,12,38,6.80
2010,02,18,12,39,6.80
2010,02,18,12,40,6.80
2010,02,18,12,41,6.80
2010,02,18,12,42,6.70
2010,02,18,12,43,6.70
2010,02,18,12,44,6.70
2010,02,18,12,45,6.70
2010,02,18,12,46,6.70
2010,02,18,12,47,6.70
2010,02,18,12,48,6.70
2010,02,18,12,49,6.70
2010,02,18,12,50,6.70
2010,02,18,12,51,6.80
2010,02,18,12,52,6.80
2010,02,18,12,53,6.90
2010,02,18,12,54,6.90
2010,02,18,12,55,7.00
2010,02,18,12,56,7.10
2010,02,18,12,57,7.10
2010,02,18,12,58,7.10
2010,02,18,12,59,7.10
2010,02,18,13,00,7.20
2010,02,18,13,01,7.20
2010,02,18,13,02,7.20
2010,02,18,13,03,7.20
2010,02,18,13,04,7.20
2010,02,18,13,05,7.20
2010,02,18,13,06,7.30
2010,02,18,13,07,7.30
2010,02,18,13,08,7.30
2010,02,18,13,09,7.30
2010,02,18,13,10,7.30
2010,02,18,13,11,7.40
2010,02,18,13,12,7.40
2010,02,18,13,13,7.40
2010,02,18,13,14,7.50
2010,02,18,13,15,7.50
2010,02,18,13,16,7.60
2010,02,18,13,17,7.60
2010,02,18,13,18,7.60
2010,02,18,13,19,7.70
2010,02,18,13,20,7.70
2010,02,18,13,21,7.70
2010,02,18,13,22,7.80
2010,02,18,13,23,7.80
2010,02,18,13,24,7.80
2010,02,18,13,25,7.80
2010,02,18,13,26,7.80
2010,02,18,13,27,7.80
2010,02,18,13,28,7.80
2010,02,18,13,29,7.90
2010,02,18,13,30,7.90
2010,02,18,13,31,8.00
2010,02,18,13,32,8.00
2010,02,18,13,33,8.00
2010,02,18,13,34,8.10
2010,02,18,13,35,8.10
2010,02,18,13,36,8.10
2010,02,18,13,37,8.20
2010,02,18,13,38,8.20
2010,02,18,13,39,8.20
2010,02,18,13,40,8.30
2010,02,18,13,41,8.30
2010,02,18,13,42,8.30
2010,02,18,13,43,8.40
2010,02,18,13,44,8.40
2010,02,18,13,45,8.40
2010,02,18,13,46,8.40
2010,02,18,13,47,8.40
2010,02,18,13,48,8.40
2010,02,18,13,49,8.40
2010,02,18,13,50,8.50
2010,02,18,13,51,8.50
2010,02,18,13,52,8.50
2010,02,18,13,53,8.50
2010,02,18,13,54,8.60
2010,02,18,13,55,8.60
2010,02,18,13,56,8.60
2010,02,18,13,57,8.60
2010,02,18,13,58,8.60
2010,02,18,13,59,8.50
2010,02,18,14,00,8.40
2010,02,18,14,01,8.40
2010,02,18,14,02,8.30
2010,02,18,14,03,8.30
2010,02,18,14,04,8.20
2010,02,18,14,05,8.20
2010,02,18,14,06,8.10
2010,02,18,14,07,8.10
2010,02,18,14,08,8.10
2010,02,18,14,09,8.10
2010,02,18,14,10,8.20
2010,02,18,14,11,8.20
2010,02,18,14,12,8.20
2010,02,18,14,13,8.20
2010,02,18,14,14,8.20
2010,02,18,14,15,8.20
2010,02,18,14,16,8.20
2010,02,18,14,17,8.20
2010,02,18,14,18,8.20
2010,02,18,14,19,8.20
2010,02,18,14,20,8.30
2010,02,18,14,21,8.30
2010,02,18,14,22,8.40
2010,02,18,14,23,8.40
2010,02,18,14,24,8.40
2010,02,18,14,25,8.40
2010,02,18,14,26,8.40
2010,02,18,14,27,8.40
2010,02,18,14,28,8.40
2010,02,18,14,29,8.40
2010,02,18,14,30,8.40
2010,02,18,14,31,8.40
2010,02,18,14,32,8.40
2010,02,18,14,33,8.40
2010,02,18,14,34,8.50
2010,02,18,14,35,8.50
2010,02,18,14,36,8.60
2010,02,18,14,37,8.60
2010,02,18,14,38,8.60
2010,02,18,14,39,8.70
2010,02,18,14,40,8.70
2010,02,18,14,41,8.70
2010,02,18,14,42,8.70
2010,02,18,14,43,8.70
2010,02,18,14,44,8.70
2010,02,18,14,45,8.70
2010,02,18,14,46,8.70
2010,02,18,14,47,8.70
2010,02,18,14,48,8.70
2010,02,18,14,49,8.70
2010,02,18,14,50,8.70
2010,02,18,14,51,8.80
2010,02,18,14,52,8.70
2010,02,18,14,53,8.70
2010,02,18,14,54,8.70
2010,02,18,14,55,8.60
2010,02,18,14,56,8.60
2010,02,18,14,57,8.60
2010,02,18,14,58,8.50
2010,02,18,14,59,8.40
2010,02,18,15,00,8.40
2010,02,18,15,01,8.30
2010,02,18,15,02,8.30
2010,02,18,15,03,8.30
2010,02,18,15,04,8.30
2010,02,18,15,05,8.30
2010,02,18,15,06,8.30
2010,02,18,15,07,8.30
2010,02,18,15,08,8.30
2010,02,18,15,09,8.30
2010,02,18,15,10,8.20
2010,02,18,15,11,8.20
2010,02,18,15,12,8.20
2010,02,18,15,13,8.10
2010,02,18,15,14,8.10
2010,02,18,15,15,8.10
2010,02,18,15,16,8.00
2010,02,18,15,17,8.00
2010,02,18,15,18,7.90
2010,02,18,15,19,7.90
2010,02,18,15,20,7.90
2010,02,18,15,21,7.90
2010,02,18,15,22,7.90
2010,02,18,15,23,7.90
2010,02,18,15,24,7.90
2010,02,18,15,25,7.90
2010,02,18,15,26,7.90
2010,02,18,15,27,7.90
2010,02,18,15,28,8.00
2010,02,18,15,29,8.00
2010,02,18,15,30,8.00
2010,02,18,15,31,8.00
2010,02,18,15,32,8.00
2010,02,18,15,33,8.00
2010,02,18,15,34,8.00
2010,02,18,15,35,7.90
2010,02,18,15,36,7.90
2010,02,18,15,37,7.90
2010,02,18,15,38,7.90
2010,02,18,15,39,7.90
2010,02,18,15,40,7.90
2010,02,18,15,41,7.90
2010,02,18,15,42,8.00
2010,02,18,15,43,8.00
2010,02,18,15,44,8.10
2010,02,18,15,45,8.20
2010,02,18,15,46,8.30
2010,02,18,15,47,8.40
2010,02,18,15,48,8.50
2010,02,18,15,49,8.60
2010,02,18,15,50,8.70
2010,02,18,15,51,8.70
2010,02,18,15,52,8.80
2010,02,18,15,53,8.80
2010,02,18,15,54,8.80
2010,02,18,15,55,8.80
2010,02,18,15,56,8.90
2010,02,18,15,57,8.90
2010,02,18,15,58,8.90
2010,02,18,15,59,8.90
2010,02,18,16,00,8.90
2010,02,18,16,01,8.90
2010,02,18,16,02,8.90
2010,02,18,16,03,8.90
2010,02,18,16,04,8.90
2010,02,18,16,05,8.90
2010,02,18,16,06,8.90
2010,02,18,16,07,8.80
2010,02,18,16,08,8.80
2010,02,18,16,09,8.80
2010,02,18,16,10,8.70
2010,02,18,16,11,8.70
2010,02,18,16,12,8.70
2010,02,18,16,13,8.70
2010,02,18,16,14,8.70
2010,02,18,16,15,8.70
2010,02,18,16,16,8.60
2010,02,18,16,17,8.60
2010,02,18,16,18,8.60
2010,02,18,16,19,8.50
2010,02,18,16,20,8.50
2010,02,18,16,21,8.50
2010,02,18,16,22,8.40
2010,02,18,16,23,8.40
2010,02,18,16,24,8.30
2010,02,18,16,25,8.30
2010,02,18,16,26,8.30
2010,02,18,16,27,8.40
2010,02,18,16,28,8.40
2010,02,18,16,29,8.40
2010,02,18,16,30,8.50
2010,02,18,16,31,8.50
2010,02,18,16,32,8.50
2010,02,18,16,33,8.50
2010,02,18,16,34,8.50
2010,02,18,16,35,8.50
2010,02,18,16,36,8.50
2010,02,18,16,37,8.50
2010,02,18,16,38,8.50
2010,02,18,16,39,8.50
2010,02,18,16,40,8.50
2010,02,18,16,41,8.50
2010,02,18,16,42,8.50
2010,02,18,16,43,8.50
2010,02,18,16,44,8.50
2010,02,18,16,45,8.50
2010,02,18,16,46,8.50
2010,02,18,16,47,8.50
2010,02,18,16,48,8.60
2010,02,18,16,49,8.60
2010,02,18,16,50,8.60
2010,02,18,16,51,8.60
2010,02,18,16,52,8.70
2010,02,18,16,53,8.70
2010,02,18,16,54,8.70
2010,02,18,16,55,8.80
2010,02,18,16,56,8.80
2010,02,18,16,57,8.80
2010,02,18,16,58,8.80
2010,02,18,16,59,8.80
2010,02,18,17,00,8.80
2010,02,18,17,01,8.80
2010,02,18,17,02,8.70
2010,02,18,17,03,8.70
2010,02,18,17,04,8.70
2010,02,18,17,05,8.60
2010,02,18,17,06,8.50
2010,02,18,17,07,8.40
2010,02,18,17,08,8.30
2010,02,18,17,09,8.20
2010,02,18,17,10,8.20
2010,02,18,17,11,8.10
2010,02,18,17,12,8.10
2010,02,18,17,13,8.00
2010,02,18,17,14,8.00
2010,02,18,17,15,7.90
2010,02,18,17,16,7.80
2010,02,18,17,17,7.80
2010,02,18,17,18,7.70
2010,02,18,17,19,7.60
2010,02,18,17,20,7.50
2010,02,18,17,21,7.40
2010,02,18,17,22,7.30
2010,02,18,17,23,7.20
2010,02,18,17,24,7.20
2010,02,18,17,25,7.10
2010,02,18,17,26,7.00
2010,02,18,17,27,6.90
2010,02,18,17,28,6.80
2010,02,18,17,29,6.70
2010,02,18,17,30,6.60
2010,02,18,17,31,6.50
2010,02,18,17,32,6.40
2010,02,18,17,33,6.30
2010,02,18,17,34,6.20
2010,02,18,17,35,6.10
2010,02,18,17,36,6.00
2010,02,18,17,37,5.90
2010,02,18,17,38,5.80
2010,02,18,17,39,5.70
2010,02,18,17,40,5.60
2010,02,18,17,41,5.50
2010,02,18,17,42,5.40
2010,02,18,17,43,5.30
2010,02,18,17,44,5.10